Back to catalog

BREEZE-M R/B

AliveHEO
NORAD 28944·ROCKET BODY·🇷🇺 Russia

Launched Feb 28, 2006 from Baikonur Cosmodrome

Loading…

Next Passes (next 24 hours)

TLE

FreshSource: Space-Track

Epoch: Sep 10, 2026, 18:39 UTC

1 28944U 06006B   26253.77773986 -.00000072  00000-0  00000-0 0  9991
2 28944  50.7540  31.3918 4812518 172.1903 133.2166  5.07318023362234

Track BREEZE-M R/B in real time with AllMySat

Download on the App Store